Wind_Speed
25 24 24 23 22 20 16 11 2 11 8 2 2 4 11 13 6 7 9 10 13 15 14 14 14 14 11 9 8 4 7 7 13 16 18 19 15 17 30 36 32 39 36 16
27 27 26 23 22 20 16 12 6 8 2 2 3 5 4 7 5 6 6 8 9 11 13 12 13 14 12 11 9 6 7 7 9 12 16 19 20 29 24 26 34 35 28 34
28 27 25 22 21 19 17 14 5 11 4 6 5 3 4 4 6 5 6 11 13 14 16 16 11 13 12 12 13 17 9 14 16 18 15 6 10 16 20 26 34 36 41 31
28 27 25 22 20 20 18 16 10 8 4 8 9 9 8 7 5 3 7 6 10 14 16 18 22 19 14 15 16 16 13 16 16 22 21 21 23 25 26 27 28 34 33 36
27 27 24 20 21 22 21 16 9 6 7 8 8 5 6 7 10 12 9 10 12 14 20 17 12 20 21 20 18 21 21 22 15 23 22 24 30 32 36 36 36 36 34 39
25 24 20 19 23 22 21 18 15 11 12 14 10 8 9 11 12 11 12 13 14 16 17 19 23 25 26 23 18 22 24 20 18 25 23 26 33 33 38 43 41 40 41 39
21 20 19 18 23 21 20 20 18 18 15 13 11 8 11 9 11 12 11 8 9 11 12 16 17 20 22 24 26 27 23 23 21 25 22 19 37 33 36 42 46 44 40 37
18 18 20 18 22 21 21 22 21 24 20 12 13 11 7 13 11 9 12 10 11 15 14 14 15 14 19 28 32 34 34 26 17 21 21 26 34 29 25 42 46 42 41 40
14 16 19 22 21 21 20 19 23 23 23 18 10 9 9 12 14 11 11 12 9 11 10 10 6 5 8 6 6 18 33 31 28 18 14 15 23 22 9 24 40 34 34 32
11 15 19 23 23 21 18 20 19 25 25 23 19 15 12 12 14 14 15 12 17 17 13 9 6 6 10 5 8 9 29 31 31 30 25 26 38 45 31 14 27 35 46 47
8 9 14 19 22 23 20 17 19 22 25 27 23 22 19 17 17 15 13 9 16 14 12 6 8 8 9 6 5 13 17 14 18 23 20 21 35 27 8 7 19 32 36 38
10 8 8 11 17 22 23 18 16 17 21 22 24 21 20 19 19 17 19 15 13 13 13 10 8 10 12 15 5 6 10 22 11 19 14 26 11 6 9 19 27 36 36 33
7 10 4 6 13 13 16 22 18 15 12 16 22 21 20 21 19 19 17 18 15 14 11 9 11 8 22 13 18 21 4 12 7 8 12 11 7 9 3 19 32 39 39 40
8 6 8 4 9 14 11 14 16 17 11 8 9 12 15 16 17 19 18 13 13 17 14 14 12 9 16 26 22 27 21 20 10 11 18 4 7 9 5 18 32 35 37 36
10 7 5 5 8 12 13 12 12 13 13 11 7 15 8 8 7 11 17 21 13 10 6 16 18 16 10 12 28 33 24 20 20 17 13 13 13 8 6 15 28 30 31 31
10 9 6 8 9 14 15 11 10 10 12 15 9 17 20 15 14 7 9 17 19 14 9 10 13 15 22 16 19 28 27 16 18 16 10 11 14 13 8 16 23 22 24 25
9 9 8 8 8 12 11 9 11 8 12 12 10 11 20 23 18 14 8 8 12 17 19 11 10 14 13 22 25 28 28 26 17 14 8 10 11 8 8 13 13 15 17 21
11 7 10 8 7 8 9 8 9 7 8 8 8 13 14 22 21 11 10 6 8 10 15 15 18 9 13 15 17 21 24 24 25 20 14 14 10 12 11 14 10 12 15 16
10 8 8 8 8 7 9 8 7 5 5 5 10 17 17 22 18 13 8 3 6 7 11 13 16 20 13 17 16 19 22 26 25 22 21 14 9 9 7 8 19 16 16 18
11 8 9 9 12 10 8 5 7 3 5 6 14 16 21 20 17 15 7 2 3 4 8 8 14 16 13 16 15 17 19 24 24 22 23 21 23 16 14 8 4 9 23 23
10 10 10 8 8 6 5 7 7 6 6 7 18 18 19 16 11 12 6 4 2 2 4 5 9 13 12 14 14 15 16 20 24 26 26 24 22 21 20 15 10 5 12 18
11 9 8 5 6 6 5 8 7 6 5 13 18 18 14 11 11 5 5 3 3 2 4 2 6 11 10 13 13 14 15 16 17 20 23 23 22 22 18 16 16 15 10 6
7 5 7 5 5 5 4 8 11 11 12 12 16 14 15 10 8 5 3 2 3 5 2 4 5 9 10 11 11 12 13 14 15 16 18 20 21 20 20 19 17 16 14 12
5 3 3 4 3 5 10 10 12 12 10 12 16 16 11 10 6 4 3 3 2 3 3 6 6 11 9 8 9 9 10 12 11 14 16 18 19 18 18 18 18 16 17 15
4 2 2 3 8 11 12 13 14 12 17 23 17 12 9 6 4 3 3 1 2 3 6 8 10 14 6 6 7 8 9 10 9 9 12 14 17 16 15 15 15 16 14 13
4 3 5 8 10 12 13 15 15 18 23 24 16 12 5 6 4 2 2 3 3 6 9 9 10 8 6 7 7 6 8 8 8 8 8 9 10 11 12 12 13 14 14 14
4 4 7 10 12 13 14 17 17 23 24 20 28 5 3 4 2 3 4 4 8 9 8 8 7 5 6 8 8 6 6 7 6 7 7 8 8 9 10 12 13 13 14 15
Wind_Direction
353 350 346 342 342 345 351 1 27 332 335 51 155 236 265 273 266 279 262 271 259 254 258 259 252 239 236 206 189 236 229 237 245 239 226 226 240 232 228 229 226 234 254 248
352 350 348 346 348 352 3 16 5 354 121 186 333 314 334 284 285 265 273 261 266 255 256 257 241 234 224 215 213 224 228 238 269 244 237 239 234 228 233 234 246 248 228 230
354 354 354 354 356 3 8 13 21 351 336 359 354 64 45 22 312 287 286 272 268 268 258 243 244 232 233 224 220 233 235 241 244 264 284 307 255 246 239 238 244 244 242 246
359 358 358 0 3 10 11 19 2 4 339 358 31 26 21 5 336 261 303 283 264 260 256 246 241 239 234 232 230 237 230 251 252 260 263 266 265 261 247 239 237 246 246 243
0 1 1 7 14 17 17 15 22 43 49 55 63 30 28 7 341 332 323 301 278 268 262 254 252 235 237 235 232 234 233 251 257 261 257 258 259 259 258 248 243 247 243 251
2 6 11 20 23 24 25 26 36 50 51 43 53 39 20 354 341 330 316 302 298 295 274 275 262 248 240 235 228 231 227 236 244 258 262 259 252 251 252 251 242 239 241 231
9 17 23 31 31 35 33 30 31 40 47 53 41 31 360 12 6 350 342 337 313 317 308 296 281 263 250 239 235 228 232 231 238 252 267 263 258 255 251 252 240 236 238 229
20 25 30 36 41 44 43 36 35 36 46 65 46 42 55 22 357 347 356 330 304 320 316 300 289 271 250 249 246 235 227 224 235 241 247 257 263 253 253 237 235 229 232 231
30 33 41 39 38 43 45 39 37 36 42 40 48 40 19 3 9 30 7 348 357 3 334 315 274 276 246 266 234 235 220 224 225 239 248 260 256 221 229 239 218 211 206 214
26 39 43 41 37 35 41 43 37 41 48 42 36 28 26 14 4 7 11 359 16 12 347 318 291 292 283 248 228 192 201 215 217 235 249 263 271 260 304 238 194 206 212 203
12 31 27 34 32 44 44 41 36 43 50 50 48 47 40 32 27 358 4 35 357 1 8 337 333 313 331 328 207 193 194 196 224 234 245 257 262 290 226 208 194 188 194 200
12 4 13 50 43 38 40 35 26 22 39 46 48 52 47 45 42 43 43 36 21 12 15 11 6 349 1 18 18 183 202 214 242 216 230 244 298 5 222 169 169 168 186 183
346 11 352 19 25 15 19 28 22 15 28 29 33 38 43 47 44 45 42 31 27 42 41 21 20 26 40 24 27 35 23 12 242 299 337 232 287 31 26 148 147 153 159 176
342 348 10 333 1 353 358 13 8 12 358 19 350 7 19 33 44 46 41 32 36 25 29 37 24 17 38 44 34 25 26 14 4 8 12 192 325 19 36 135 142 146 147 157
342 324 332 355 350 344 345 342 349 353 1 355 322 328 324 324 352 36 36 29 13 1 13 36 33 21 1 21 25 22 19 8 9 359 33 12 345 2 45 135 145 146 146 158
342 337 327 332 324 343 338 342 343 342 348 358 340 24 26 7 334 343 16 27 32 27 18 21 32 16 36 24 14 14 20 26 17 22 31 12 331 312 125 142 151 153 148 154
347 347 336 326 337 346 354 350 341 334 356 2 349 346 355 5 5 2 331 347 19 26 36 23 25 32 36 31 15 7 10 23 32 28 24 33 340 313 200 166 162 172 174 161
358 345 345 340 333 346 352 342 345 345 357 14 6 346 354 358 359 5 350 319 319 343 15 21 25 23 28 23 8 11 8 23 26 27 18 12 9 327 285 213 185 195 186 182
2 2 2 3 351 330 333 341 342 335 350 1 356 353 348 350 350 359 356 326 314 328 357 14 22 33 28 10 12 16 10 24 30 31 31 27 33 25 360 257 241 228 210 208
4 353 348 348 345 331 323 331 341 318 321 303 341 344 341 346 341 355 356 319 309 323 352 4 10 24 8 11 22 20 13 26 31 37 41 37 37 31 27 35 292 259 242 223
354 358 358 343 345 1 2 353 348 330 317 310 335 335 335 338 330 323 351 342 330 294 345 1 3 10 360 4 12 22 21 26 30 31 32 30 31 35 33 27 27 281 250 246
348 349 357 9 20 11 5 346 334 324 330 319 331 323 331 329 323 311 336 340 353 333 319 332 350 5 349 0 8 14 16 21 27 30 29 27 26 26 28 35 36 32 20 323
351 4 9 4 11 8 331 325 344 330 315 316 330 330 334 324 330 296 316 295 283 301 267 307 328 327 350 357 1 5 13 8 8 14 20 24 23 21 21 19 26 31 26 21
356 10 8 11 342 333 322 315 315 319 354 348 348 329 312 318 320 292 318 259 308 281 279 328 331 307 323 345 358 1 359 4 0 357 4 7 14 16 13 13 10 16 19 23
338 308 291 318 318 327 316 326 335 329 322 326 332 315 302 284 253 234 247 312 304 275 321 325 314 311 304 331 341 348 351 351 351 344 360 358 351 6 7 5 7 6 13 15
285 263 314 311 328 333 321 314 316 305 318 314 304 315 253 260 239 210 109 339 273 309 314 315 313 307 315 326 331 330 341 342 347 351 359 358 359 4 6 8 9 6 2 6
306 305 300 311 313 323 324 317 307 308 311 304 307 303 287 292 271 98 22 269 300 318 309 314 301 303 328 339 342 316 317 339 339 343 360 9 5 5 4 12 14 18 11 6
Height
3111 3106 3101 3097 3093 3089 3085 3082 3084 3079 3076 3082 3078 3080 3076 3075 3078 3077 3078 3077 3079 3080 3081 3081 3082 3082 3083 3080 3082 3085 3085 3084 3083 3084 3085 3085 3085 3088 3090 3089 3090 3089 3088 3085
3108 3104 3099 3094 3089 3085 3082 3080 3079 3077 3075 3079 3078 3074 3074 3072 3074 3076 3075 3075 3076 3076 3077 3078 3076 3077 3079 3077 3079 3081 3081 3081 3079 3074 3080 3079 3081 3084 3086 3088 3086 3079 3082 3086
3107 3102 3097 3092 3088 3084 3081 3079 3080 3076 3073 3072 3072 3071 3071 3072 3070 3072 3071 3072 3072 3072 3071 3072 3072 3073 3074 3074 3076 3075 3076 3077 3077 3072 3067 3077 3080 3080 3081 3084 3080 3080 3077 3083
3107 3101 3097 3092 3087 3083 3081 3076 3076 3074 3073 3070 3069 3070 3069 3068 3067 3068 3067 3067 3067 3066 3065 3066 3066 3068 3069 3070 3071 3071 3073 3070 3072 3071 3072 3072 3073 3075 3077 3077 3081 3078 3079 3079
3107 3101 3097 3092 3087 3083 3080 3076 3073 3071 3070 3070 3070 3070 3069 3067 3065 3065 3063 3062 3061 3060 3058 3061 3060 3061 3063 3064 3065 3066 3067 3064 3067 3065 3066 3067 3066 3067 3066 3071 3074 3073 3077 3072
3107 3102 3098 3093 3088 3084 3080 3077 3073 3071 3070 3069 3069 3068 3066 3066 3064 3062 3060 3058 3057 3056 3055 3054 3053 3054 3055 3054 3057 3059 3060 3060 3063 3058 3059 3058 3055 3058 3059 3057 3064 3066 3063 3071
3108 3104 3099 3095 3090 3085 3082 3078 3075 3072 3072 3070 3069 3067 3067 3065 3063 3060 3057 3057 3056 3056 3053 3052 3050 3048 3047 3048 3049 3052 3052 3055 3057 3054 3052 3045 3045 3050 3050 3046 3050 3054 3060 3063
3110 3106 3102 3097 3092 3088 3085 3081 3079 3076 3073 3071 3069 3068 3066 3064 3062 3060 3058 3055 3054 3050 3048 3047 3044 3041 3041 3038 3039 3040 3044 3048 3050 3049 3045 3040 3034 3036 3042 3036 3033 3042 3047 3055
3112 3108 3104 3100 3096 3091 3088 3084 3082 3080 3075 3074 3070 3068 3066 3064 3062 3059 3057 3054 3051 3048 3046 3044 3040 3035 3033 3031 3028 3029 3034 3039 3044 3043 3039 3029 3021 3019 3019 3019 3022 3030 3037 3046
3114 3110 3107 3103 3099 3095 3091 3088 3085 3083 3078 3076 3071 3069 3067 3064 3061 3058 3054 3053 3050 3046 3043 3040 3037 3034 3031 3028 3026 3025 3027 3031 3033 3035 3035 3025 3017 3009 3009 3013 3015 3018 3025 3031
3114 3112 3109 3105 3102 3098 3095 3092 3089 3086 3082 3079 3075 3072 3069 3065 3062 3059 3056 3054 3050 3046 3043 3040 3037 3033 3030 3025 3023 3023 3025 3030 3030 3032 3033 3023 3012 3005 3009 3004 3006 3012 3019 3023
3115 3112 3109 3106 3104 3101 3099 3095 3092 3088 3085 3084 3079 3075 3073 3070 3064 3060 3058 3056 3053 3049 3045 3041 3037 3033 3030 3027 3024 3022 3026 3027 3023 3022 3017 3012 3008 3001 2999 2999 3005 3007 3012 3017
3114 3112 3109 3107 3104 3102 3101 3098 3094 3091 3088 3085 3081 3079 3075 3071 3067 3062 3061 3058 3055 3052 3048 3044 3040 3037 3032 3029 3027 3025 3023 3020 3017 3014 3010 3004 3006 3001 2996 2997 2998 3000 3005 3013
3113 3111 3109 3107 3105 3103 3101 3099 3096 3093 3091 3089 3086 3081 3077 3074 3070 3066 3062 3059 3056 3054 3050 3046 3043 3039 3036 3031 3029 3025 3023 3019 3014 3008 3005 3004 3003 2998 2994 2995 2996 2998 3001 3007
3111 3110 3108 3106 3105 3103 3101 3099 3096 3094 3095 3091 3087 3080 3078 3074 3071 3068 3064 3061 3057 3055 3054 3050 3045 3040 3036 3032 3028 3024 3022 3017 3011 3007 3003 3001 2999 2994 2992 2995 2995 2998 3001 3005
3109 3108 3106 3105 3104 3102 3100 3097 3095 3093 3091 3088 3085 3083 3079 3074 3071 3068 3065 3063 3060 3057 3055 3051 3048 3044 3040 3035 3032 3029 3025 3019 3013 3008 3004 2999 2998 2993 2992 2993 2994 2999 3001 3005
3108 3107 3105 3103 3102 3100 3099 3097 3095 3092 3091 3088 3084 3081 3078 3074 3070 3067 3065 3064 3063 3060 3056 3053 3049 3046 3043 3039 3036 3031 3025 3019 3015 3011 3008 3004 2996 2994 2995 2997 2993 3001 3001 3004
3107 3106 3104 3102 3100 3099 3098 3096 3094 3092 3090 3088 3086 3083 3077 3075 3070 3067 3065 3064 3062 3060 3059 3055 3051 3049 3045 3043 3041 3036 3030 3023 3017 3013 3008 3005 3001 2999 2995 2995 2998 3000 3002 3002
3107 3105 3103 3101 3099 3098 3097 3095 3093 3091 3092 3088 3085 3082 3078 3074 3071 3067 3065 3064 3063 3061 3059 3056 3054 3050 3047 3045 3041 3038 3033 3026 3021 3017 3012 3009 3007 3003 3000 2998 2996 3000 3000 3002
3107 3105 3102 3100 3098 3096 3095 3094 3092 3090 3089 3086 3084 3081 3078 3075 3070 3067 3065 3064 3063 3062 3061 3057 3055 3052 3050 3046 3043 3039 3035 3030 3025 3020 3015 3011 3006 3002 3000 3001 2999 2998 3000 3003
3107 3104 3101 3099 3097 3096 3094 3093 3091 3089 3087 3085 3082 3079 3076 3072 3070 3067 3065 3064 3063 3062 3062 3059 3057 3054 3052 3047 3044 3041 3037 3033 3028 3024 3020 3016 3012 3009 3006 3002 2999 2999 3001 3001
3105 3103 3101 3099 3098 3097 3096 3094 3092 3090 3088 3085 3081 3078 3073 3070 3068 3066 3064 3064 3063 3062 3060 3059 3057 3055 3052 3047 3044 3041 3039 3036 3033 3029 3025 3021 3017 3013 3012 3010 3006 3002 2999 2999
3104 3103 3101 3100 3100 3099 3097 3095 3093 3092 3089 3084 3079 3076 3072 3069 3068 3066 3064 3063 3063 3060 3060 3057 3055 3054 3052 3048 3045 3043 3040 3037 3034 3032 3029 3026 3022 3019 3014 3010 3008 3006 3004 3000
3104 3103 3102 3101 3100 3099 3097 3095 3092 3089 3084 3082 3078 3074 3071 3068 3066 3065 3064 3063 3062 3061 3060 3058 3056 3052 3050 3048 3046 3043 3041 3039 3037 3034 3031 3028 3025 3021 3017 3013 3010 3007 3002 3000
3103 3102 3101 3100 3100 3097 3094 3092 3089 3086 3083 3079 3074 3070 3068 3066 3064 3063 3063 3062 3062 3060 3059 3058 3055 3051 3048 3047 3045 3044 3042 3040 3038 3035 3032 3030 3026 3023 3020 3017 3014 3010 3008 3006
3102 3101 3100 3100 3097 3096 3093 3090 3087 3083 3080 3075 3070 3065 3065 3063 3062 3061 3060 3061 3061 3058 3056 3056 3052 3049 3047 3046 3044 3043 3041 3039 3038 3036 3034 3032 3029 3026 3025 3021 3017 3014 3010 3007
3100 3100 3098 3097 3095 3094 3091 3088 3084 3080 3077 3072 3067 3065 3063 3059 3057 3057 3058 3057 3056 3056 3055 3052 3050 3048 3046 3045 3043 3042 3041 3039 3037 3036 3034 3032 3031 3029 3026 3023 3020 3017 3013 3009